RH
66 70 77 97 95 94 95 95 96 96 95 95 95 95 94 93 93 93 93 93 94 93 93 94 94 94 94 94 93 90 60 41
62 68 65 65 66 95 94 95 95 96 95 96 97 96 94 94 94 94 92 91 92 93 94 94 94 94 95 95 94 91 57 47
73 71 68 59 56 68 91 94 94 96 92 97 93 66 71 76 78 92 94 92 92 94 94 95 95 95 95 95 94 50 43 43
80 83 77 62 46 62 62 59 59 62 62 71 66 59 61 52 67 94 95 95 95 95 95 95 94 61 70 90 60 49 50 48
69 83 83 78 59 50 52 51 54 57 60 59 61 54 56 54 56 64 70 90 76 80 80 68 63 50 48 55 52 53 55 52
54 67 76 78 64 50 49 44 50 51 54 65 60 55 62 57 52 58 66 60 65 65 62 62 58 54 66 57 52 62 56 57
41 57 67 73 76 63 67 60 49 50 51 58 54 51 60 57 50 52 59 51 61 62 65 60 61 54 54 58 60 56 60 48
20 29 56 66 70 70 70 65 52 58 54 58 63 54 61 52 52 44 46 45 57 57 61 71 67 61 63 57 60 52 62 61
17 24 31 51 65 61 67 58 56 49 53 68 80 66 62 64 64 48 43 43 65 61 64 69 77 69 64 60 56 55 64 63
15 15 23 33 45 50 55 55 57 50 50 57 71 79 63 63 74 63 48 47 54 72 69 66 78 75 70 64 66 59 62 60
24 29 29 30 36 44 52 59 56 51 49 54 62 70 71 61 62 74 65 51 58 64 76 73 70 65 69 75 68 61 61 54
35 34 39 39 32 38 40 47 51 58 52 49 59 60 69 69 57 70 74 66 68 65 72 74 71 67 63 63 73 71 61 59
38 42 44 41 38 27 31 47 49 52 58 54 54 55 63 68 60 65 74 78 80 78 70 75 78 74 77 70 77 74 71 61
45 44 43 43 38 36 30 30 36 44 49 55 56 56 60 62 64 57 73 76 88 85 83 82 73 74 76 81 88 80 66 59
45 46 46 47 48 43 39 39 35 43 53 54 55 57 60 65 64 61 62 74 78 86 88 86 90 85 72 68 71 60 51 60
45 47 49 48 50 50 52 44 37 33 47 54 53 60 60 62 66 66 67 74 78 82 82 86 86 92 89 68 61 45 47 55
48 51 52 51 53 58 58 56 47 42 40 54 59 61 64 63 67 70 73 76 78 81 86 89 84 81 86 76 70 61 60 58
52 54 53 54 57 61 67 69 61 53 50 47 60 61 63 69 69 75 78 80 80 79 85 87 87 84 83 74 71 70 61 69
55 56 59 58 61 63 67 70 70 65 59 55 59 63 66 72 76 84 80 80 80 81 89 88 87 88 85 83 65 62 57 59
64 64 66 63 67 68 70 73 74 65 59 54 59 54 61 70 76 82 83 79 81 85 86 88 89 89 87 84 70 65 66 58
Wind_Speed
10 11 11 4 6 7 7 10 12 12 12 13 12 12 11 12 12 11 10 9 10 9 9 9 8 9 9 8 6 10 11 7
8 9 13 13 11 6 6 8 10 11 11 11 10 9 10 11 10 10 10 9 10 10 9 9 9 8 7 7 4 8 12 8
2 10 10 14 13 11 8 7 7 8 9 8 10 10 12 13 12 13 10 9 10 10 10 10 9 7 6 6 6 7 9 2
5 7 8 11 12 13 12 11 10 11 12 13 11 12 11 12 13 11 10 10 9 10 10 10 10 9 7 6 7 9 4 2
11 8 8 8 10 10 8 9 9 9 14 13 12 10 9 10 8 9 9 9 8 9 9 9 12 9 10 9 9 8 3 1
11 11 11 12 10 8 9 10 10 9 12 13 10 8 7 10 8 10 9 10 11 11 8 11 12 10 6 9 10 4 3 2
4 10 10 10 12 8 9 9 10 10 11 13 11 12 10 11 10 10 9 11 9 10 9 9 9 11 8 8 6 6 4 2
4 7 10 11 11 11 9 10 10 11 12 11 14 10 8 10 11 11 12 11 9 10 10 8 6 8 10 9 9 9 5 4
5 5 9 10 13 13 9 11 11 10 11 13 11 14 13 12 10 10 10 10 10 10 11 8 7 8 10 10 10 10 4 3
8 6 8 10 11 11 10 11 9 11 10 12 16 16 16 13 10 11 10 9 10 6 9 9 7 7 7 8 7 9 8 7
12 11 13 11 11 11 13 12 12 11 10 12 15 19 19 14 12 10 11 9 9 9 7 9 10 10 7 6 7 8 9 9
15 12 12 12 10 10 11 11 12 10 11 11 17 16 18 16 12 13 11 10 8 11 12 9 9 8 8 9 7 7 8 8
16 14 13 10 10 9 11 12 12 11 12 15 16 16 18 18 14 15 15 13 12 12 13 12 8 7 7 7 6 7 9 9
16 16 14 12 10 11 10 11 12 12 12 14 16 17 17 17 17 14 17 13 13 13 13 10 10 10 9 5 4 5 10 11
15 17 17 14 14 12 12 13 12 12 13 13 15 17 18 19 20 16 15 13 13 14 13 13 10 8 13 7 6 8 7 9
15 16 17 16 15 13 16 14 15 12 12 13 13 18 18 19 19 18 15 13 15 15 13 13 10 10 8 11 12 7 6 7
17 17 17 17 15 15 13 16 14 14 13 17 18 14 20 18 19 17 16 13 16 16 15 16 12 10 10 10 13 11 10 10
19 19 17 17 16 16 17 19 18 16 16 14 13 13 13 18 19 16 15 15 15 15 15 17 13 12 10 12 10 12 11 8
18 20 20 18 18 17 17 19 20 21 20 16 15 12 13 16 17 15 14 16 16 15 14 15 16 13 12 9 11 11 11 9
21 21 20 19 18 18 17 19 12 16 19 17 14 14 14 15 16 16 17 19 16 14 12 12 14 13 16 14 13 10 8 9
Wind_Direction
129 173 179 159 141 145 156 155 155 160 160 160 159 158 159 163 164 171 172 160 154 152 155 154 155 153 156 160 188 247 273 138
161 185 184 186 182 139 162 170 162 161 162 155 151 155 162 166 165 172 183 174 162 158 161 161 158 156 159 159 184 270 267 143
123 181 202 190 183 170 174 178 165 155 157 148 154 190 184 176 195 164 180 177 169 164 168 166 159 148 150 158 188 224 239 228
186 175 201 209 198 165 193 189 197 194 189 180 199 204 187 201 184 173 169 176 172 173 173 164 179 179 172 169 216 243 241 225
184 186 181 197 230 177 192 191 202 202 199 192 203 202 184 213 182 182 197 179 188 184 177 198 201 201 179 191 214 244 251 231
172 198 186 194 213 200 201 200 190 203 204 201 195 208 188 213 193 201 195 187 204 190 191 205 203 231 149 193 215 233 243 186
322 185 207 199 208 196 207 224 195 216 200 197 212 202 185 216 205 189 199 197 198 193 195 206 211 215 215 191 226 239 256 248
271 269 205 220 204 220 203 216 217 191 212 214 216 213 200 218 215 220 197 197 200 194 197 191 201 212 218 210 214 226 239 223
243 276 266 238 234 217 218 227 226 211 206 180 209 230 198 191 233 230 214 201 197 187 197 185 200 211 217 210 225 220 231 246
309 315 297 273 249 239 225 223 228 231 201 207 195 211 228 191 195 233 219 221 186 191 197 193 191 206 207 218 209 224 220 214
327 321 300 281 265 249 233 227 226 223 228 198 206 202 212 225 199 206 229 225 190 200 207 188 203 203 205 200 217 227 216 215
321 310 316 309 289 270 249 231 229 222 231 216 210 204 201 210 213 201 206 225 208 201 205 202 207 202 197 203 209 226 236 222
319 321 314 305 295 264 246 229 233 221 221 226 211 212 198 203 209 200 195 203 206 205 204 203 205 188 201 216 206 216 219 228
319 314 313 309 301 291 282 274 235 220 226 222 219 212 201 201 208 205 189 196 198 206 214 205 202 183 194 174 200 235 239 234
316 314 312 305 306 294 279 273 265 245 214 235 221 221 204 206 207 206 201 192 194 199 202 202 199 208 200 184 204 231 215 202
316 315 310 305 305 289 279 274 273 245 228 215 237 212 215 208 211 209 202 194 196 196 198 200 196 197 205 221 246 258 227 207
317 313 305 301 303 297 286 275 273 274 272 216 210 222 219 215 211 209 203 198 203 196 196 200 198 202 203 210 226 238 248 268
320 313 303 306 299 294 284 280 276 273 275 272 207 214 219 221 214 207 201 200 202 200 196 200 199 204 203 209 210 222 229 215
319 315 308 305 300 293 286 277 273 268 264 266 249 210 214 216 211 206 202 198 200 196 193 198 201 198 199 206 229 215 230 228
323 317 310 308 304 297 292 284 272 265 252 256 258 209 216 203 208 208 211 208 197 192 191 201 200 201 197 201 223 226 223 242